Regional Weather Roundup
Issued by NWS

Home | Current Version | Previous Version | Graphics & Text | Print | Product List | Glossary On
Versions: 1 2 3 4 5 6 7 8 9 10 11 12 13 14 15 16 17 18 19 20 21 22 23 24 25 26 27 28 29 30 31 32 33 34 35 36 37 38 39 40 41 42 43 44 45 46 47 48 49 50
000
ASUS43 KLOT 290810
RWRIL

ILLINOIS REGIONAL WEATHER ROUNDUP
NATIONAL WEATHER SERVICE CHICAGO/ROMEOVILLE IL
200 AM CST THU JAN 29 2015

NOTE: "FAIR" INDICATES FEW OR NO CLOUDS BELOW 12,000 FEET WITH NO
SIGNIFICANT WEATHER AND/OR OBSTRUCTIONS TO VISIBILITY.

* THESE STATIONS ARE NOT UNDER NWS QUALITY CONTROL. THEY ALSO MAY NOT
  REPORT WEATHER SUCH AS PRECIPITATION OR FOG.

ILZ001-002-007-009-015-016-024-290900-
NORTHWEST ILLINOIS

CITY           SKY/WX    TMP DP  RH WIND       PRES   REMARKS
MOLINE         PTCLDY    37  31  78 NW5       29.67R WCI  33
STERLING*      MOCLDY    30  27  86 E5        29.70S WCI  25
SAVANNA*       PTCLDY    31  28  91 N6        29.71S WCI  25
$$

ILZ003-004-008-010-011-017-018-290900-
NORTH CENTRAL ILLINOIS

CITY           SKY/WX    TMP DP  RH WIND       PRES   REMARKS
ROCKFORD       CLOUDY    34  27  75 SE6       29.74S WCI  29
FREEPORT*      MOCLDY    27  26  94 N5        29.74S FOG     WCI  22
ROCHELLE*      MOCLDY    32  29  90 S8        29.71F WCI  25
DE KALB*       CLOUDY    32  28  84 SE15      29.72F WCI  21
PERU*          MOCLDY    36  31  83 S9        29.71F WCI  29
$$

ILZ005-006-012>014-019>023-290900-
NORTHEAST ILLINOIS

CITY           SKY/WX    TMP DP  RH WIND       PRES   REMARKS
CHICAGO-OHARE  CLOUDY    35  26  69 S10       29.75F WCI  27
CHICAGO-MIDWAY CLOUDY    38  26  62 S13       29.76F WCI  30
AURORA         CLOUDY    35  27  72 SE12      29.74F WCI  27
LANSING*       CLOUDY    36  26  68 S13G22    29.78F WCI  27
JOLIET*        CLOUDY    36  27  71 S9        29.75F WCI  29
WAUKEGAN       CLOUDY    33  26  75 SE5       29.75F WCI  29
DUPAGE AIRPORT CLOUDY    35  27  72 S10       29.74F WCI  27
KANKAKEE*      CLOUDY    38  29  70 S15       29.76F WCI  29
WHEELING       CLOUDY    35  26  69 S9        29.77F WCI  28
MORRIS*        CLOUDY    36  31  83 SE8       29.73F WCI  29
ROMEOVILLE*    CLOUDY    35  27  72 S14       29.75F WCI  26
NORTHERLY ISL    N/A     36  25  65 S10         N/A  WCI  28
$$

LMZ740>746-290900-
SOUTHERN LAKE MICHIGAN

STATION/POSITION SKY/WX   TEMP    WIND        PRES    VSBY  WAVE
                          AIR SEA DIR/SP/G                  HT/PER
                          (F)     (DEG/KT/KT) (MB)    (MI)  (FT/S)
WAUKEGAN HARBOR            33     150/  9/ 10   N/A
HARRISON CRIB              34     170/ 15/ 17   N/A
BURNHAM HARBOR             36     190/  5/ 12   N/A
CALUMET HARBOR             36     160/  7/ 12   N/A
MICHIGAN CITY              35     140/ 17/ 24   N/A
$$

ILZ025>027-034>036-040-047-049-050-058-095>099-290900-
WEST-CENTRAL ILLINOIS

CITY           SKY/WX    TMP DP  RH WIND       PRES   REMARKS
QUINCY         PTCLDY    50  37  61 W18G30    29.72R
GALESBURG*     PTCLDY    39  34  83 S10       29.67S WCI  32
MACOMB*        PTCLDY    37  34  87 S9        29.70S WCI  31
JACKSONVILLE*  CLOUDY    44  36  73 S12       29.72F
PITTSFIELD*    CLOUDY    49  38  66 SW8       29.73R
$$

ILZ028>032-037-038-041>044-048-051>054-059>061-290900-
CENTRAL ILLINOIS

CITY           SKY/WX    TMP DP  RH WIND       PRES   REMARKS
PONTIAC        PTCLDY    37  32  81 S17       29.72F WCI  27
BLOOMINGTON    MOCLDY    37  32  82 S18       29.72F WCI  27
DECATUR        MOCLDY    42  32  67 S17G29    29.75F
PEORIA         MOCLDY    38  32  79 S10       29.69F WCI  31
LACON*         MOCLDY    38  32  77 S7        29.69S WCI  33
LINCOLN*       CLOUDY    41  33  73 S13G18    29.73R
SPRINGFIELD    CLOUDY    43  34  70 S21       29.73F
TAYLORVILLE    CLOUDY    41  32  70 S20G25    29.76F
$$

ILZ033-039-045-046-055>057-062-063-290900-
EAST-CENTRAL ILLINOIS

CITY           SKY/WX    TMP DP  RH WIND       PRES   REMARKS
CHAMPAIGN      MOCLDY    37  30  75 S17G26    29.77F WCI  27
DANVILLE*      CLOUDY    38  28  64 S20G25    29.77F WCI  29
RANTOUL*       MOCLDY    37  31  78 S10       29.77F WCI  30
MATTOON        CLOUDY    39  29  67 S15       29.79F WCI  31
PARIS*         CLOUDY    39  30  70 S15G30    29.83F WCI  31
$$

ILZ079-100>102-290900-
SOUTHWEST ILLINOIS

CITY           SKY/WX    TMP DP  RH WIND       PRES   REMARKS
ALTON          CLOUDY    47  37  66 S14       29.78S
BELLEVILLE     MOCLDY    49  39  69 VRB6      29.80S
CAHOKIA*       MOCLDY    54  39  57 S14G22    29.78S
SPARTA*        MOCLDY    47  35  63 S14       29.84S
$$

ILZ064>066-069>071-074>076-080>082-084>086-088>090-092>094-290900-
SOUTH-CENTRAL ILLINOIS

CITY           SKY/WX    TMP DP  RH WIND       PRES   REMARKS
CARBONDALE     CLOUDY    50  33  52 SW17G25   29.87F
CAIRO*         CLOUDY    50  36  57 S14       29.93F
EFFINGHAM*     CLOUDY    41  29  62 SE9       29.84F
MARION         CLOUDY    50  34  53 S20G28    29.88F
MT. VERNON     CLOUDY    46  34  61 S20       29.85F
CENTRALIA*     CLOUDY    46  34  62 S15       29.82F
SALEM*         CLOUDY    48  34  58 S14G20    29.83F
METROPOLIS*    CLOUDY    51  34  52 S10G16    29.93F
$$

ILZ067-068-072-073-078-083-087-091-290900-
SOUTHEAST ILLINOIS

CITY           SKY/WX    TMP DP  RH WIND       PRES   REMARKS
LAWRENCEVILLE  CLOUDY    40  33  76 S18       29.88F
FLORA*         CLOUDY    41  33  74 S10       29.86S
FAIRFIELD*     CLOUDY    45  34  66 S9        29.86F
HARRISBURG*    CLOUDY    50  33  52 S20G25    29.90F
ROBINSON*      CLOUDY    39  32  76 S14       29.88F WCI  31
CARMI*         CLOUDY    47  37  66 S14       29.89F
$$

ABBREVIATIONS USED IN REMARKS
   TC - TEMPERATURE IN CELSIUS
  WCI - WIND CHILL INDEX
   HX - HEAT INDEX
  VSB - VISIBILITY
$$




USA.gov is the U.S. government's official web portal to all federal, state and local government web resources and services.